Location: Leipzig
(51.3397°N, 12.3731°E)
Time: 19:01:04
(UTC+01:00)

ISS - Pass Details

Date: 25 October 2025
Orbit: 414 x 421 km, 51.6° (Epoch: 07 November)

Event Time Altitude Azimuth Distance (km) Brightness Sun altitude
Exits shadow 04:51:22 19° 85° (E) 1,079 -1.0 -28.5°
Drops below altitude 10° 04:52:27 10° 80° (E) 1,505 0.0 -28.3°
Sets 04:54:34 0° 77° (ENE) 2,372 1.3 -28.0°
